Theta_e
332 334 338 342 352 344 336 341 338 339 337 338 338 338 336 336 340 343 333 335 338 344 346 341 330 332 333 334 335 335 337 337 337 339 342 342 341 339 339 337 338 339 342 342 342 341 341 341 342
339 342 342 342 346 338 336 336 338 338 336 336 338 338 340 340 336 335 336 337 338 343 344 342 329 332 334 335 336 336 336 336 337 340 341 342 342 341 340 339 341 341 341 341 341 342 342 342 342
339 344 344 349 342 341 335 333 334 334 334 338 339 339 339 337 336 336 337 338 343 343 337 338 341 336 335 338 339 338 337 339 344 341 344 344 343 342 341 341 341 341 341 341 340 341 341 342 342
342 335 344 355 343 341 339 336 335 335 335 337 339 340 340 339 338 338 339 341 345 347 346 344 338 341 338 337 341 342 341 343 343 343 338 339 341 339 339 340 339 339 339 339 340 340 340 338 337
340 344 347 342 341 340 339 337 337 339 339 341 340 341 338 337 339 340 341 342 342 345 347 345 340 341 340 340 342 340 339 342 340 337 337 336 335 333 334 334 332 334 334 335 337 338 337 334 332
341 341 351 346 342 340 340 339 340 341 341 342 346 344 342 341 342 342 342 341 340 339 340 344 343 342 341 340 340 342 341 339 338 337 333 332 329 326 325 324 323 319 322 324 329 330 327 327 327
338 344 346 344 347 345 341 340 341 343 344 346 344 349 345 341 342 340 339 337 334 331 329 329 345 343 341 335 335 335 335 332 330 329 329 330 327 326 325 323 319 320 322 323 325 326 319 317 318
338 345 345 343 346 345 340 341 339 341 347 344 336 341 346 342 340 339 336 331 328 326 324 325 326 331 344 339 336 332 329 329 329 329 326 325 329 325 320 321 319 319 320 322 321 321 323 323 324
336 345 346 344 345 343 342 342 342 341 342 343 341 339 342 341 339 336 330 326 325 323 323 326 327 329 330 337 335 334 332 329 327 327 325 323 321 320 320 320 320 320 320 320 320 320 320 323 326
339 344 342 340 341 343 342 342 343 343 344 345 344 342 341 339 332 327 325 325 324 323 324 327 330 331 331 329 329 328 327 328 327 324 322 321 321 321 321 321 322 322 321 322 321 321 321 321 322
340 342 339 340 341 341 341 341 343 345 346 345 344 343 338 331 327 326 325 324 324 323 324 326 330 331 331 328 327 326 326 325 324 323 322 321 324 322 323 323 323 321 321 322 322 322 321 321 321
339 339 340 341 341 340 342 342 344 344 346 343 343 339 333 329 328 327 326 324 324 323 322 326 328 328 328 327 327 326 325 323 323 322 322 323 325 323 323 323 321 321 320 321 320 320 320 321 321
338 339 340 340 340 342 343 345 346 345 344 343 341 337 332 329 328 328 328 327 326 324 323 323 325 326 327 326 326 325 324 322 322 323 323 323 323 322 322 323 321 321 321 320 321 321 321 321 321
339 341 341 341 341 342 345 345 345 346 344 344 342 337 332 331 330 329 329 328 328 327 324 322 324 324 325 324 324 323 322 322 322 323 323 323 321 321 321 323 321 320 321 320 320 320 321 321 321
345 340 338 340 341 344 344 346 346 345 345 344 342 340 334 332 332 332 332 330 328 327 325 322 322 324 323 323 323 322 322 322 321 322 322 321 320 320 321 322 321 320 322 321 319 319 320 321 321
345 345 348 341 342 342 338 346 346 345 345 343 343 341 337 334 333 332 333 331 329 328 325 323 322 322 324 324 323 323 322 321 322 322 321 321 320 320 320 321 321 319 321 320 317 318 320 319 321
342 351 350 344 340 343 344 350 347 345 344 344 343 343 340 338 335 333 332 331 330 329 326 322 323 324 324 324 323 322 321 322 322 322 321 320 320 320 319 321 321 318 321 319 317 316 319 319 319
337 343 344 343 341 340 343 349 348 344 344 345 344 344 342 340 338 336 332 332 331 330 327 324 323 324 323 322 322 321 322 321 322 322 321 321 320 320 319 319 320 317 320 319 317 316 317 317 318
336 336 339 337 339 336 340 344 350 345 343 344 343 346 340 341 339 337 334 333 333 331 329 325 324 324 323 322 322 322 322 322 322 321 322 321 320 319 319 318 318 317 319 316 315 316 315 317 316
336 338 337 339 340 336 342 341 348 346 344 342 343 342 341 341 342 338 335 334 333 333 329 327 324 324 323 324 323 324 323 322 321 321 321 321 320 319 319 318 317 317 318 315 314 313 316 315 315
334 336 337 336 335 339 342 342 344 345 344 342 341 342 340 340 343 341 337 336 335 334 331 327 325 325 323 324 324 324 324 323 322 321 322 321 320 319 318 318 318 316 317 314 314 313 313 314 314
338 335 336 338 341 347 342 342 348 346 344 343 343 342 342 341 341 342 338 336 335 335 330 327 325 324 323 322 324 325 324 323 323 321 321 321 320 320 318 318 318 317 317 315 313 313 313 314 314
333 334 338 340 344 346 346 346 349 348 348 346 344 342 340 340 340 341 338 337 336 334 331 327 326 325 324 325 324 324 323 323 323 321 322 319 320 320 319 318 317 317 316 316 314 315 314 315 314
334 338 341 342 344 355 347 345 347 348 340 335 344 342 340 339 338 339 337 336 335 333 330 327 326 325 324 323 324 324 323 322 323 323 323 320 319 320 319 318 318 317 316 316 315 316 314 313 315
337 343 344 350 346 351 342 340 342 335 333 334 336 342 339 337 339 339 336 336 334 333 330 328 327 326 324 323 323 323 323 324 324 323 321 321 319 319 319 318 318 317 317 316 316 316 314 314 315
337 338 343 343 340 341 340 341 342 338 337 335 335 336 340 338 337 339 337 336 334 333 332 328 326 325 324 323 323 323 323 322 322 322 319 322 322 319 319 318 317 317 317 315 316 316 315 315 313
338 340 338 341 340 341 337 341 341 339 339 338 337 336 338 340 339 340 338 336 334 334 333 329 325 325 324 323 323 323 323 322 322 321 319 319 321 320 319 319 318 317 317 315 316 317 316 315 313
333 335 340 341 347 347 341 340 341 341 337 338 339 338 337 340 339 338 337 336 334 334 333 330 325 325 324 323 323 323 323 322 322 321 321 320 319 320 319 319 318 317 316 316 316 316 316 315 316
338 339 345 343 341 343 338 340 340 343 341 341 338 339 339 339 339 339 340 336 334 334 333 330 325 324 324 323 322 322 322 322 322 322 321 321 319 320 320 319 319 317 316 316 316 315 316 315 316
335 338 341 343 346 343 342 339 338 342 340 338 338 338 337 338 338 339 339 336 335 334 332 330 327 324 324 323 323 323 322 323 322 322 322 321 321 320 321 320 319 319 317 317 316 316 316 316 316
Wind_Speed
4 7 12 9 7 4 15 19 13 17 20 20 23 18 21 19 13 10 10 8 9 13 11 6 5 3 2 2 2 3 4 4 5 7 8 9 10 11 12 13 13 12 11 10 10 10 10 10 10
4 16 15 3 2 13 12 16 17 15 17 19 20 20 19 20 19 14 12 7 5 13 21 7 2 1 2 1 1 2 3 4 5 6 8 9 9 9 10 11 12 13 14 14 13 12 11 11 11
4 12 7 4 7 12 12 15 13 15 13 15 15 15 13 15 15 10 9 5 23 12 14 4 1 1 1 1 2 4 4 5 6 7 9 9 9 9 10 11 12 13 13 13 13 13 13 12 12
5 14 6 16 24 19 15 10 15 16 14 19 18 14 14 18 17 13 7 8 13 15 17 6 14 8 1 2 3 4 6 5 6 7 8 8 9 9 10 11 12 13 14 14 13 12 13 13 14
32 2 4 9 21 17 13 13 17 20 16 19 20 18 16 15 13 10 8 11 11 10 13 7 12 11 7 3 1 2 4 3 4 6 7 7 8 9 10 11 14 14 13 14 13 12 13 14 15
6 5 6 5 19 15 19 15 16 20 20 17 17 18 13 12 12 12 10 9 11 10 12 8 8 8 9 7 6 7 6 6 7 8 8 8 10 11 13 14 16 19 16 16 15 15 14 13 12
9 9 18 19 21 16 17 15 13 16 8 20 22 4 10 12 12 8 13 16 13 13 14 15 6 7 11 13 13 15 13 13 15 13 11 8 7 9 11 11 19 18 15 15 15 17 18 18 17
11 8 23 14 20 9 12 19 16 13 25 13 8 4 8 6 8 11 12 13 14 14 14 14 13 8 8 12 15 16 18 15 15 14 13 17 9 13 16 10 19 18 16 14 14 17 16 15 15
17 2 8 13 16 11 13 15 17 14 17 18 10 11 11 10 13 14 14 15 13 15 17 16 13 11 10 10 11 10 13 15 12 13 14 16 14 14 13 12 16 14 17 17 19 18 21 23 18
11 3 3 11 16 16 15 17 12 12 15 15 13 12 11 14 12 13 12 13 16 16 16 17 14 12 14 9 10 10 11 10 11 14 15 13 14 14 15 14 10 16 14 16 18 17 17 20 21
13 6 14 13 13 13 11 16 15 15 11 12 12 13 14 12 12 12 14 15 16 15 15 16 14 14 13 12 11 9 10 12 12 15 17 14 14 14 16 15 16 17 18 18 18 18 16 17 16
14 13 14 11 15 13 17 14 7 14 14 10 14 13 13 12 13 13 15 15 15 15 15 13 12 13 13 15 11 11 11 10 11 13 18 17 17 16 20 16 18 18 19 19 20 19 18 17 18
10 10 11 13 13 13 14 14 10 12 11 11 12 12 11 11 12 13 14 12 13 14 13 12 12 11 10 12 11 10 10 11 11 12 16 16 18 19 19 17 18 18 17 18 17 17 18 17 17
10 12 10 10 11 8 15 13 9 9 9 10 10 10 9 10 10 12 11 12 13 12 13 10 10 11 10 9 7 10 9 10 11 12 12 15 17 18 15 17 17 19 17 19 19 21 20 18 16
25 10 21 8 12 13 10 5 8 12 12 10 9 9 8 9 11 10 10 10 11 12 11 11 9 9 9 9 10 9 8 9 10 11 14 16 17 19 17 15 18 18 22 19 18 24 25 22 19
3 8 8 12 15 15 14 8 11 13 13 11 11 8 9 7 11 9 8 8 9 9 9 8 8 6 5 5 5 6 6 8 8 11 16 16 17 18 18 15 17 19 17 19 22 22 22 24 25
14 7 15 14 7 18 11 5 17 16 15 13 13 9 11 10 13 9 6 9 7 7 7 7 6 6 4 3 2 5 7 7 8 10 13 15 16 17 18 17 16 19 17 17 19 22 23 24 22
4 5 8 13 10 6 13 12 18 18 15 14 14 12 13 11 13 14 9 7 6 5 6 6 7 5 3 6 2 5 6 6 6 10 10 12 14 16 16 18 16 15 16 17 19 21 23 21 18
15 17 15 10 4 4 8 10 20 18 14 10 10 14 10 10 23 17 12 9 7 5 5 5 5 5 6 6 9 8 8 7 7 7 8 11 13 14 14 16 16 15 17 18 21 20 22 21 24
18 6 7 7 0 4 6 4 20 19 14 12 11 9 9 11 15 16 12 12 6 7 3 4 5 5 6 5 6 3 3 3 6 7 9 10 11 13 13 14 16 18 18 19 20 21 19 20 23
7 14 16 10 7 8 11 16 12 15 15 13 13 13 9 12 17 15 17 14 12 11 6 4 3 3 4 4 5 7 2 5 9 10 11 8 8 10 13 14 15 17 14 19 17 17 17 14 17
0 8 13 16 17 10 22 5 13 12 10 12 13 13 14 15 11 15 17 16 10 12 9 7 3 1 3 4 4 3 9 8 7 8 9 6 4 5 11 12 14 15 14 16 17 14 14 11 14
12 10 12 18 11 6 16 8 10 11 13 16 15 13 12 13 15 16 18 22 16 16 11 10 5 3 1 1 3 7 6 8 11 9 8 8 3 5 11 12 13 13 15 12 14 11 13 11 10
9 6 5 6 3 5 18 12 6 10 4 3 18 14 13 11 12 15 20 23 16 15 12 12 8 5 3 1 1 1 3 3 4 8 10 7 9 7 13 11 11 11 12 13 14 8 11 14 13
19 17 2 3 5 4 2 9 9 11 9 3 1 16 14 10 13 14 15 19 20 17 14 13 11 8 5 4 3 1 2 5 8 3 9 11 10 9 10 9 9 10 11 13 13 7 10 14 13
7 1 6 8 11 7 6 4 4 4 5 4 2 1 17 15 12 15 17 20 20 19 15 10 13 8 9 6 4 2 2 6 5 6 6 9 11 9 6 8 8 9 10 14 15 9 11 10 14
2 2 9 11 14 13 2 7 6 14 8 7 3 2 6 13 8 14 22 19 19 21 18 13 11 11 9 7 6 5 3 3 5 4 4 8 9 9 11 9 8 9 10 12 11 13 11 12 12
12 9 11 5 3 9 14 8 5 13 9 5 6 5 4 9 8 6 21 19 19 19 17 13 12 12 11 10 9 8 5 5 4 6 7 5 8 8 10 11 8 10 11 11 11 12 14 13 12
11 14 6 2 2 5 7 9 6 17 11 14 6 6 7 9 10 10 19 22 18 19 17 16 13 11 11 11 9 8 6 6 7 7 8 6 9 10 10 10 11 10 13 12 12 14 14 14 14
4 13 7 2 6 12 14 1 7 2 11 7 17 3 7 8 8 13 21 23 17 18 16 20 14 12 12 13 11 10 9 8 9 10 9 9 10 11 10 11 12 13 14 13 13 15 15 16 14
Wind_Direction
233 231 221 230 261 212 71 103 71 80 72 65 66 67 66 50 47 97 120 100 85 110 97 86 63 73 81 77 28 17 7 1 1 357 354 354 352 351 347 343 342 336 332 327 322 317 314 313 314
264 261 237 2 253 90 81 89 91 97 109 112 101 84 62 76 95 109 97 96 114 110 84 41 63 143 156 121 56 353 343 343 347 350 351 350 348 346 343 345 345 343 340 337 328 318 311 307 303
285 283 267 300 83 85 93 92 101 121 111 97 79 61 74 81 67 93 108 147 72 123 147 307 357 325 233 51 19 356 341 340 344 340 344 345 347 350 353 353 350 348 342 338 333 325 318 311 303
332 21 331 224 72 60 77 82 118 114 110 106 114 78 68 72 86 83 63 50 97 113 108 170 54 43 68 59 31 338 334 333 344 342 343 353 353 352 353 357 357 354 351 346 338 327 320 312 303
72 103 292 112 107 78 63 96 77 68 77 98 97 92 84 91 92 89 61 33 57 108 98 54 51 72 87 98 1 7 354 357 346 350 347 354 359 4 14 359 2 0 354 348 344 336 327 318 308
92 81 327 323 78 87 65 53 75 75 78 65 52 85 102 116 89 76 68 58 49 50 58 70 61 80 86 74 53 48 40 25 10 9 20 33 28 19 11 0 356 348 338 335 334 331 324 322 323
172 118 251 79 47 337 90 86 72 51 58 84 113 211 113 92 107 102 69 47 33 23 23 26 82 97 97 86 69 59 55 53 48 41 33 7 17 13 11 6 358 356 349 343 335 328 321 317 311
63 74 316 91 113 238 86 80 97 102 96 110 124 149 129 123 95 88 76 47 30 29 26 24 19 31 121 95 64 67 62 52 41 29 6 345 302 6 347 358 354 8 5 1 348 353 349 336 323
73 70 244 122 163 110 87 81 73 60 74 90 144 149 117 78 50 47 39 52 39 28 33 30 20 11 12 78 44 66 62 53 33 14 9 3 12 7 349 344 357 3 9 2 358 351 351 343 329
110 177 79 96 98 96 82 106 116 107 98 98 94 97 104 83 85 75 52 49 54 32 28 32 27 15 23 30 42 47 38 42 47 22 19 9 8 9 1 3 6 1 1 359 350 352 357 352 348
107 99 71 57 64 92 100 88 106 112 92 105 122 103 97 99 90 76 69 50 46 42 35 32 31 29 19 32 31 33 35 25 33 21 22 8 16 8 3 4 350 358 357 352 346 345 359 344 343
75 61 63 60 48 67 94 105 71 106 116 116 94 108 104 91 79 64 55 54 48 43 35 37 38 35 26 24 37 29 36 27 32 35 23 14 15 8 354 359 353 359 356 350 347 344 352 338 328
78 86 88 71 69 93 85 84 91 91 96 97 120 126 107 114 104 91 83 67 50 44 35 36 41 32 43 37 26 37 20 31 27 39 24 21 16 8 352 349 360 4 349 349 351 349 341 332 328
87 50 105 111 103 101 96 118 127 129 132 136 154 123 123 102 109 89 71 63 71 46 33 30 47 37 40 35 26 34 19 32 30 33 31 19 16 7 352 353 3 355 343 348 5 352 345 339 332
7 13 325 154 122 126 113 180 124 151 170 167 148 148 122 123 93 83 86 73 57 62 37 21 43 42 37 36 28 50 21 37 34 33 25 21 16 9 357 6 7 348 341 15 3 355 349 342 336
308 351 308 155 151 112 109 259 150 168 190 165 164 159 165 126 112 122 111 95 77 58 44 33 33 31 34 29 47 50 40 43 38 37 27 18 14 9 360 9 7 349 7 12 2 347 339 337 337
174 211 233 148 162 160 163 178 195 186 197 174 174 163 176 170 138 148 142 115 98 76 49 42 42 33 6 5 25 60 53 49 31 50 26 16 13 12 1 9 6 353 0 19 7 347 342 337 349
100 36 194 122 153 182 222 158 159 185 209 178 175 184 169 195 169 159 145 120 115 94 63 51 40 25 2 349 25 46 78 35 50 44 24 17 15 14 10 4 7 5 9 24 9 354 346 339 348
47 46 357 323 98 286 274 154 168 179 204 205 172 184 192 188 136 156 158 151 146 129 82 49 47 23 5 27 24 25 14 49 22 42 32 22 15 16 16 9 11 357 4 26 10 360 351 342 6
20 54 224 250 237 296 251 221 161 168 191 200 191 226 193 150 148 157 164 164 178 131 117 69 42 30 13 40 35 352 333 18 29 22 58 31 20 16 14 13 8 7 355 12 7 2 360 351 359
324 323 321 352 325 213 263 257 166 162 179 197 201 189 226 159 161 166 172 175 180 159 144 118 60 35 25 348 26 353 281 339 28 4 32 8 21 18 16 14 7 5 16 19 7 5 8 354 354
14 258 304 354 343 30 339 327 156 161 181 193 204 203 194 172 164 165 171 168 177 153 148 156 129 52 74 11 38 10 340 24 4 12 7 348 19 37 26 17 9 8 12 18 19 10 1 358 351
327 2 53 4 2 68 288 293 124 154 197 205 201 206 203 168 173 169 175 167 170 153 171 159 149 149 106 124 29 6 29 359 4 7 321 356 55 62 44 21 9 12 6 13 7 2 4 7 350
326 79 74 300 304 61 256 240 133 200 148 308 185 188 197 169 184 165 178 145 150 153 166 160 166 173 183 205 240 28 1 356 331 328 325 356 2 43 30 19 6 5 9 358 2 8 12 356 355
306 345 337 268 224 188 297 289 84 60 53 52 119 171 168 163 165 161 142 145 148 159 162 173 176 181 188 201 210 241 300 276 290 318 16 333 352 11 17 9 357 354 356 2 0 4 17 357 342
40 311 27 301 336 328 75 87 118 69 84 66 14 273 166 174 182 164 162 158 162 164 169 179 164 184 189 201 197 208 281 325 331 35 1 330 325 355 355 355 344 341 346 354 347 1 359 345 350
315 275 297 311 328 303 220 156 339 318 145 111 146 184 177 173 178 157 161 165 155 155 165 182 185 178 180 201 199 218 230 277 299 303 314 325 332 343 344 330 326 326 320 336 346 340 338 344 340
257 5 334 77 30 341 319 44 180 266 63 95 146 172 214 146 154 189 146 142 143 158 163 185 183 196 194 203 212 224 206 254 269 294 270 273 312 302 311 316 316 312 316 310 324 328 321 315 317
32 287 57 74 281 249 315 33 36 18 76 16 337 171 180 181 198 180 141 140 157 159 171 185 188 187 192 201 214 218 235 256 271 280 295 269 312 298 292 306 305 302 308 303 310 322 312 308 311
220 336 36 273 313 318 303 328 323 102 72 117 266 213 200 207 193 150 146 145 165 168 184 178 187 204 203 196 202 219 227 243 265 275 281 293 297 302 288 296 303 303 304 302 297 297 296 298 304